Tracking 28091 objects as of 30-Sep-2023
HD Live streaming from Space Station
objects crossing your sky now

STARLINK-5745

Track STARLINK-5745 now!
10-day predictions
STARLINK-5745 is classified as:


NORAD ID: 55575
Int'l Code: 2023-020G
Perigee: 565.4 km
Apogee: 567.0 km
Inclination: 43.0 °
Period: 95.8 minutes
Semi major axis: 6937 km
RCS: Unknown
Launch date: February 12, 2023
Source: United States (US)
Launch site: AIR FORCE EASTERN TEST RANGE (AFETR)
Your satellite tracking list
Your tracking list is empty




NASA's NSSDC Master Catalog

Two Line Element Set (TLE):
1 55575U 23020G   23272.13747423  .00007232  00000-0  54978-3 0  9991
2 55575  43.0025 174.7461 0001136 264.7552  95.3161 15.02544394 34655
Source of the keplerian elements: AFSPC